User: anonymous
Location: ActonStarParty
(42.4766°N, 71.4538°W)
Time: 13:43:39
(UTC-04:00)
Language:

Cosmos 1300 - Orbit

View from above orbital plane
View from above orbital plane
View from above satellite
View from above satellite

Ground track
Ground track

The orbit data is extracted from the following two-line orbital elements,

1 12785U 81082A   14204.51043635  .00001279  00000-0  74323-4 0  7686
2 12785 082.5035 037.8701 0001021 055.1992 003.1693 15.11274847791413
Epoch (UTC): 23 July 2014 12:15:01
Eccentricity: 0.0001021
inclination: 82.5035°
perigee height: 531 km
apogee height: 533 km
right ascension of ascending node: 37.8701°
argument of perigee: 55.1992°
revolutions per day: 15.11274847
mean anomaly at epoch: 3.1693°
orbit number at epoch: 79141

The dashed part of the orbit path shows where the satellite is in the earth's shadow,  

DLR